Date String (YYYY-MM-DD hh:mm:ss) UTC,Instrument flags,Ambient pressure (hPa),Sample flow (lpm),Bypass flow (lpm),Sample temperature (°C),Ambient temperature (°C),ASC tube jacket temperature (°C),LED temperature (°C),Box temperature (°C),Sample RH (%),Span deviation,Mass concentration (μg/m³),Mass concentration (μg/m³),Mass concentration (μg/m³)
DateTimeUTC,F1_M11,P_M11,Q1_M11,Q2_M11,T1_M11,T2_M11,T3_M11,T4_M11,T5_M11,U1_M11,ZSPAN_M11,X2_M11,X0_M11,X1_M11
2022-10-24 21:00:00,,0819.3,5.00,0.00,25.6,23.9,00.0,34.4,27.4,07.4,0000.0,0000.99,0002.30,0000.79
2022-10-24 21:01:00,,0819.3,5.00,0.00,25.5,23.9,00.0,34.4,27.3,07.5,0000.0,0000.97,0002.27,0000.79
2022-10-24 21:02:00,,0819.4,4.99,0.00,25.5,23.9,00.0,34.4,27.4,07.6,0000.0,0000.98,0002.45,0000.79
2022-10-24 21:03:00,,0819.3,5.00,0.00,25.5,23.9,00.0,34.4,27.4,07.6,0000.0,0001.08,0002.87,0000.80
2022-10-24 21:04:00,,0819.3,4.99,0.00,25.5,23.9,00.0,34.4,27.4,07.7,0000.0,0001.14,0002.99,0000.81
2022-10-24 21:05:00,,0819.2,5.00,0.00,25.5,23.9,00.0,34.4,27.3,07.6,0000.0,0001.15,0002.45,0000.82
2022-10-24 21:06:00,,0819.3,5.00,0.00,25.5,23.9,00.0,34.4,27.3,07.7,0000.0,0001.23,0002.46,0000.84
2022-10-24 21:07:00,,0819.3,5.02,0.00,25.5,23.9,00.0,34.4,27.3,07.6,0000.0,0001.29,0002.62,0000.85
2022-10-24 21:08:00,,0819.3,5.00,0.00,25.5,23.9,00.0,34.4,27.4,07.6,0000.0,0001.33,0002.69,0000.87
2022-10-24 21:09:00,,0819.3,5.00,0.00,25.5,23.9,00.0,34.4,27.4,07.5,0000.0,0001.35,0002.86,0000.89
2022-10-24 21:10:00,,0819.3,5.00,0.00,25.5,23.9,00.0,34.4,27.4,07.5,0000.0,0001.35,0002.94,0000.90
2022-10-24 21:11:00,,0819.3,4.99,0.00,25.5,23.9,00.0,34.4,27.3,07.5,0000.0,0001.36,0003.01,0000.91
2022-10-24 21:12:00,,0819.3,5.00,0.00,25.5,23.9,00.0,34.4,27.3,07.5,0000.0,0001.42,0003.18,0000.93
2022-10-24 21:13:00,,0819.4,5.00,0.00,25.5,23.8,00.0,34.4,27.3,07.4,0000.0,0001.41,0003.45,0000.94
2022-10-24 21:14:00,,0819.3,5.00,0.00,25.5,23.9,00.0,34.4,27.3,07.4,0000.0,0001.37,0003.18,0000.96
2022-10-24 21:15:00,,0819.4,5.00,0.00,25.5,23.9,00.0,34.4,27.3,07.3,0000.0,0001.34,0003.09,0000.97
2022-10-24 21:16:00,,0819.4,5.00,0.00,25.5,23.9,00.0,34.4,27.4,07.3,0000.0,0001.35,0003.29,0000.98
2022-10-24 21:17:00,,0819.3,5.00,0.00,25.5,23.9,00.0,34.4,27.3,07.4,0000.0,0001.31,0003.22,0000.98
2022-10-24 21:18:00,,0819.4,5.02,0.00,25.5,23.9,00.0,34.4,27.4,07.4,0000.0,0001.25,0003.04,0000.98
2022-10-24 21:19:00,,0819.5,5.00,0.00,25.5,23.9,00.0,34.4,27.4,07.5,0000.0,0001.28,0003.28,0000.98
2022-10-24 21:20:00,,0819.4,4.99,0.00,25.5,23.9,00.0,34.4,27.4,07.5,0000.0,0001.27,0003.23,0000.98
2022-10-24 21:21:00,,0819.4,5.00,0.00,25.5,23.9,00.0,34.4,27.4,07.5,0000.0,0001.28,0003.10,0000.98
2022-10-24 21:22:00,,0819.4,5.00,0.00,25.5,23.9,00.0,34.4,27.3,07.5,0000.0,0001.28,0003.07,0000.98
2022-10-24 21:23:00,,0819.5,5.00,0.00,25.5,23.8,00.0,34.3,27.2,07.4,0000.0,0001.26,0003.14,0000.98
2022-10-24 21:24:00,,0819.4,5.02,0.00,25.5,23.8,00.0,34.3,27.2,07.4,0000.0,0001.28,0003.35,0000.99
2022-10-24 21:25:00,,0819.5,4.99,0.00,25.5,23.8,00.0,34.3,27.3,07.3,0000.0,0001.26,0003.05,0001.00
2022-10-24 21:26:00,,0819.5,4.99,0.00,25.5,23.9,00.0,34.3,27.3,07.3,0000.0,0001.24,0002.98,0001.00
2022-10-24 21:27:00,,0819.5,5.00,0.00,25.5,23.9,00.0,34.3,27.3,07.3,0000.0,0001.25,0002.83,0001.01
2022-10-24 21:28:00,,0819.6,5.00,0.00,25.5,23.8,00.0,34.3,27.3,07.3,0000.0,0001.29,0002.84,0001.02
2022-10-24 21:29:00,,0819.6,5.01,0.00,25.5,23.8,00.0,34.3,27.3,07.3,0000.0,0001.30,0003.37,0001.02
2022-10-24 21:30:00,,0819.7,5.00,0.00,25.5,23.9,00.0,34.3,27.3,07.3,0000.0,0001.28,0003.47,0001.02
2022-10-24 21:31:00,,0819.7,4.99,0.00,25.5,23.9,00.0,34.3,27.2,07.3,0000.0,0001.29,0003.40,0001.03
2022-10-24 21:32:00,,0819.7,5.00,0.00,25.5,23.9,00.0,34.3,27.2,07.4,0000.0,0001.29,0003.42,0001.03
2022-10-24 21:33:00,,0819.8,5.00,0.00,25.5,23.9,00.0,34.3,27.3,07.4,0000.0,0001.29,0003.43,0001.04
2022-10-24 21:34:00,,0819.8,4.99,0.00,25.5,23.9,00.0,34.3,27.4,07.5,0000.0,0001.31,0003.43,0001.05
2022-10-24 21:35:00,,0819.9,5.00,0.00,25.5,23.9,00.0,34.3,27.3,07.4,0000.0,0001.29,0002.76,0001.05
2022-10-24 21:36:00,,0819.9,5.00,0.00,25.5,23.9,00.0,34.3,27.3,07.3,0000.0,0001.29,0002.67,0001.04
2022-10-24 21:37:00,,0819.8,5.01,0.00,25.5,23.9,00.0,34.3,27.3,07.3,0000.0,0001.29,0002.67,0001.05
2022-10-24 21:38:00,,0819.8,5.00,0.00,25.5,23.9,00.0,34.3,27.4,07.4,0000.0,0001.30,0002.66,0001.05
2022-10-24 21:39:00,,0819.8,5.00,0.00,25.5,23.9,00.0,34.3,27.3,07.4,0000.0,0001.31,0002.68,0001.06
2022-10-24 21:40:00,,0819.8,5.01,0.00,25.5,23.9,00.0,34.3,27.4,07.5,0000.0,0001.33,0002.51,0001.08
2022-10-24 21:41:00,,0819.9,5.02,0.00,25.5,23.9,00.0,34.3,27.3,07.4,0000.0,0001.33,0001.95,0001.09
2022-10-24 21:42:00,,0819.9,5.01,0.00,25.5,23.9,00.0,34.3,27.3,07.3,0000.0,0001.36,0002.65,0001.11
2022-10-24 21:43:00,,0819.9,4.98,0.00,25.5,23.9,00.0,34.3,27.4,07.5,0000.0,0001.41,0002.85,0001.13
2022-10-24 21:44:00,,0819.9,5.02,0.00,25.5,23.9,00.0,34.3,27.4,07.7,0000.0,0001.46,0003.02,0001.15
2022-10-24 21:45:00,,0819.9,4.99,0.00,25.5,24.0,00.0,34.3,27.4,07.6,0000.0,0001.53,0003.19,0001.16
2022-10-24 21:46:00,,0819.9,5.00,0.00,25.5,24.0,00.0,34.3,27.4,07.7,0000.0,0001.56,0003.24,0001.17
2022-10-24 21:47:00,,0819.9,5.00,0.00,25.5,24.0,00.0,34.3,27.4,07.5,0000.0,0001.59,0003.26,0001.19
2022-10-24 21:48:00,,0819.8,5.01,0.00,25.5,24.0,00.0,34.3,27.4,07.5,0000.0,0001.64,0003.40,0001.20
2022-10-24 21:49:00,,0819.8,4.99,0.00,25.5,24.0,00.0,34.3,27.4,07.8,0000.0,0001.67,0003.51,0001.22
2022-10-24 21:50:00,,0819.8,5.00,0.00,25.5,24.0,00.0,34.3,27.3,07.9,0000.0,0001.67,0003.53,0001.22
2022-10-24 21:51:00,,0819.7,4.99,0.00,25.5,24.0,00.0,34.3,27.4,07.8,0000.0,0001.68,0004.98,0001.21
2022-10-24 21:52:00,,0819.7,5.00,0.00,25.5,24.0,00.0,34.3,27.4,07.8,0000.0,0001.67,0005.27,0001.20
2022-10-24 21:53:00,,0819.7,5.00,0.00,25.5,24.0,00.0,34.3,27.4,07.8,0000.0,0001.65,0004.83,0001.19
2022-10-24 21:54:00,,0819.7,5.01,0.00,25.5,24.0,00.0,34.3,27.4,07.7,0000.0,0001.62,0004.43,0001.18
2022-10-24 21:55:00,,0819.8,5.01,0.00,25.5,23.9,00.0,34.3,27.4,07.7,0000.0,0001.60,0004.35,0001.17
2022-10-24 21:56:00,,0819.9,5.00,0.00,25.5,23.9,00.0,34.3,27.3,07.7,0000.0,0001.55,0004.48,0001.17
2022-10-24 21:57:00,,0819.9,5.00,0.00,25.5,23.9,00.0,34.3,27.4,07.7,0000.0,0001.52,0005.15,0001.16
2022-10-24 21:58:00,,0819.8,5.00,0.00,25.5,23.9,00.0,34.3,27.3,07.8,0000.0,0001.52,0005.18,0001.15
2022-10-24 21:59:00,,0819.9,4.99,0.00,25.5,23.9,00.0,34.3,27.3,07.8,0000.0,0001.48,0005.26,0001.14
